TimeCST,TemperatureF,Dew PointF,Humidity,Sea Level PressureIn,VisibilityMPH,Wind Direction,Wind SpeedMPH,Gust SpeedMPH,PrecipitationIn,Events,Conditions,WindDirDegrees,DateUTC
12:15 AM,22.6,21.4,95,30.23,7.0,West,6.9,-,N/A,,Clear,270,2011-12-17 06:15:00
12:35 AM,21.9,20.5,94,30.22,10.0,West,10.4,-,N/A,,Clear,270,2011-12-17 06:35:00
12:55 AM,21.6,20.1,94,30.23,10.0,West,10.4,-,N/A,,Clear,280,2011-12-17 06:55:00
1:15 AM,21.2,19.9,95,30.22,10.0,WNW,11.5,-,N/A,,Clear,290,2011-12-17 07:15:00
1:35 AM,21.4,19.8,93,30.22,10.0,WNW,11.5,-,N/A,,Clear,290,2011-12-17 07:35:00
1:55 AM,21.2,19.6,93,30.23,10.0,WNW,11.5,-,N/A,,Clear,290,2011-12-17 07:55:00
2:15 AM,20.5,19.0,94,30.23,10.0,West,12.7,-,N/A,,Clear,280,2011-12-17 08:15:00
2:35 AM,20.3,19.0,95,30.23,10.0,West,11.5,-,N/A,,Clear,280,2011-12-17 08:35:00
2:55 AM,20.1,18.9,95,30.23,10.0,WNW,11.5,-,N/A,,Clear,290,2011-12-17 08:55:00
3:15 AM,20.1,19.0,96,30.24,10.0,WNW,11.5,-,N/A,,Mostly Cloudy,300,2011-12-17 09:15:00
3:35 AM,21.0,20.1,96,30.24,5.0,WNW,15.0,19.6,N/A,,Overcast,290,2011-12-17 09:35:00
3:55 AM,21.0,20.3,97,30.23,4.0,WNW,11.5,-,N/A,,Overcast,300,2011-12-17 09:55:00
4:15 AM,20.7,20.3,99,30.23,4.0,WNW,10.4,-,N/A,,Overcast,290,2011-12-17 10:15:00
4:35 AM,20.3,20.1,99,30.23,2.0,WNW,9.2,-,N/A,,Overcast,290,2011-12-17 10:35:00
4:55 AM,20.1,19.8,99,30.24,1.2,WNW,10.4,-,N/A,,Overcast,290,2011-12-17 10:55:00
5:15 AM,20.1,19.8,99,30.24,0.8,WNW,10.4,-,N/A,,Overcast,290,2011-12-17 11:15:00
5:35 AM,19.9,19.4,98,30.24,0.5,WNW,8.1,-,N/A,,Overcast,300,2011-12-17 11:35:00
5:55 AM,19.6,19.2,99,30.24,1.2,WNW,5.8,-,N/A,,Overcast,290,2011-12-17 11:55:00
6:15 AM,18.3,17.6,97,30.24,7.0,West,4.6,-,N/A,,Scattered Clouds,270,2011-12-17 12:15:00
6:35 AM,17.2,16.5,97,30.24,7.0,West,5.8,-,N/A,,Clear,260,2011-12-17 12:35:00
6:55 AM,16.7,15.8,96,30.24,7.0,West,6.9,-,N/A,,Clear,260,2011-12-17 12:55:00
7:15 AM,16.2,15.3,96,30.24,7.0,WSW,6.9,-,N/A,,Clear,250,2011-12-17 13:15:00
7:35 AM,15.8,14.9,96,30.24,7.0,West,6.9,-,N/A,,Clear,260,2011-12-17 13:35:00
7:55 AM,15.8,14.9,96,30.24,5.0,WSW,6.9,-,N/A,,Clear,250,2011-12-17 13:55:00
8:15 AM,16.0,15.1,96,30.24,5.0,WSW,5.8,-,N/A,,Clear,240,2011-12-17 14:15:00
8:35 AM,16.5,15.6,96,30.24,5.0,WSW,3.5,-,N/A,,Clear,250,2011-12-17 14:35:00
8:55 AM,18.0,17.4,98,30.24,5.0,WSW,6.9,-,N/A,,Scattered Clouds,240,2011-12-17 14:55:00
9:15 AM,19.0,18.7,98,30.23,5.0,WSW,8.1,-,N/A,,Scattered Clouds,250,2011-12-17 15:15:00
9:35 AM,20.1,19.6,98,30.23,5.0,WSW,6.9,-,N/A,,Clear,240,2011-12-17 15:35:00
9:55 AM,21.2,20.8,99,30.24,5.0,WSW,6.9,-,N/A,,Clear,240,2011-12-17 15:55:00
10:15 AM,22.8,22.6,99,30.23,7.0,WSW,8.1,-,N/A,,Clear,240,2011-12-17 16:15:00
10:35 AM,24.3,24.1,99,30.23,7.0,WSW,8.1,-,N/A,,Clear,240,2011-12-17 16:35:00
10:55 AM,26.1,25.7,99,30.23,10.0,WSW,9.2,-,N/A,,Clear,240,2011-12-17 16:55:00
11:15 AM,27.7,25.5,92,30.23,10.0,WSW,12.7,-,N/A,,Clear,240,2011-12-17 17:15:00
11:35 AM,28.6,25.3,88,30.22,10.0,WSW,12.7,-,N/A,,Clear,240,2011-12-17 17:35:00
11:55 AM,30.0,26.4,86,30.21,10.0,WSW,12.7,18.4,N/A,,Clear,240,2011-12-17 17:55:00
12:15 PM,31.8,26.8,82,30.20,10.0,WSW,16.1,-,N/A,,Clear,250,2011-12-17 18:15:00
12:35 PM,32.9,26.8,78,30.20,10.0,West,18.4,-,N/A,,Clear,260,2011-12-17 18:35:00
12:55 PM,33.8,26.8,75,30.20,10.0,West,15.0,-,N/A,,Clear,270,2011-12-17 18:55:00
1:15 PM,35.2,27.1,72,30.18,10.0,West,17.3,23.0,N/A,,Clear,270,2011-12-17 19:15:00
1:35 PM,36.1,27.3,70,30.18,10.0,West,17.3,-,N/A,,Clear,270,2011-12-17 19:35:00
1:55 PM,36.7,27.1,68,30.17,10.0,West,17.3,-,N/A,,Clear,270,2011-12-17 19:55:00
2:35 PM,38.5,27.5,65,30.18,10.0,West,18.4,-,N/A,,Clear,270,2011-12-17 20:35:00
2:55 PM,38.5,27.5,65,30.17,10.0,West,15.0,-,N/A,,Clear,270,2011-12-17 20:55:00
3:15 PM,38.5,27.5,65,30.18,10.0,West,15.0,-,N/A,,Clear,260,2011-12-17 21:15:00
3:35 PM,38.3,27.5,65,30.18,10.0,West,13.8,-,N/A,,Clear,260,2011-12-17 21:35:00
3:55 PM,37.9,27.5,66,30.18,10.0,West,13.8,-,N/A,,Clear,270,2011-12-17 21:55:00
4:15 PM,36.9,27.3,68,30.18,10.0,West,12.7,-,N/A,,Clear,270,2011-12-17 22:15:00
4:35 PM,35.1,27.1,73,30.19,10.0,West,12.7,-,N/A,,Clear,270,2011-12-17 22:35:00
4:55 PM,33.1,26.6,77,30.19,10.0,West,11.5,-,N/A,,Clear,270,2011-12-17 22:55:00
5:15 PM,32.4,26.2,78,30.20,10.0,West,11.5,-,N/A,,Clear,270,2011-12-17 23:15:00
5:35 PM,31.5,25.9,80,30.20,10.0,WSW,6.9,-,N/A,,Clear,250,2011-12-17 23:35:00
6:15 PM,30.6,25.2,80,30.21,10.0,West,6.9,-,N/A,,Clear,270,2011-12-18 00:15:00
6:35 PM,30.4,25.0,80,30.20,10.0,West,8.1,-,N/A,,Clear,260,2011-12-18 00:35:00
6:55 PM,31.1,24.8,77,30.20,10.0,West,8.1,-,N/A,,Clear,260,2011-12-18 00:55:00
7:15 PM,31.5,24.6,76,30.20,10.0,WSW,8.1,-,N/A,,Clear,250,2011-12-18 01:15:00
7:35 PM,30.2,24.1,78,30.20,10.0,West,4.6,-,N/A,,Clear,260,2011-12-18 01:35:00
7:55 PM,30.4,23.9,77,30.20,10.0,WSW,5.8,-,N/A,,Clear,250,2011-12-18 01:55:00
8:15 PM,29.8,23.7,78,30.20,10.0,SW,6.9,-,N/A,,Clear,220,2011-12-18 02:15:00
8:35 PM,28.2,23.4,82,30.20,10.0,SW,6.9,-,N/A,,Clear,230,2011-12-18 02:35:00
9:15 PM,29.1,23.9,81,30.19,10.0,SW,6.9,-,N/A,,Clear,220,2011-12-18 03:15:00
9:35 PM,28.6,23.7,82,30.19,10.0,SW,6.9,-,N/A,,Clear,230,2011-12-18 03:35:00
9:55 PM,29.5,23.9,80,30.18,10.0,SW,6.9,-,N/A,,Clear,220,2011-12-18 03:55:00
10:15 PM,29.3,23.7,80,30.18,10.0,SSW,8.1,-,N/A,,Clear,210,2011-12-18 04:15:00
10:35 PM,28.0,23.5,83,30.18,10.0,SW,8.1,-,N/A,,Clear,220,2011-12-18 04:35:00
10:55 PM,27.1,23.2,85,30.18,10.0,SW,5.8,-,N/A,,Clear,220,2011-12-18 04:55:00
11:15 PM,26.6,23.0,86,30.17,10.0,SW,5.8,-,N/A,,Clear,220,2011-12-18 05:15:00
11:35 PM,27.5,23.7,86,30.16,10.0,SSW,6.9,-,N/A,,Clear,210,2011-12-18 05:35:00
11:55 PM,27.7,23.7,85,30.16,10.0,SSW,6.9,-,N/A,,Clear,200,2011-12-18 05:55:00